[[{"header":{"parameterUnit":"m.s-1","parameterCategory":1,"la1":30.2991,"la2":30.254,"lo1":-89.0895,"lo2":-89.0444,"dy":0.0017,"dx":0.0017,"nx":28,"ny":28,"refTime":"2026-01-02T03:00:00:Z","depth":0,"parameterNumber":2,"parameterNumberName":"U-component_of_WINDS"},"data":[0,0,0,0,0,0,0,0,0,0,0,0,0,0,0,0,0,0,0,0,0,0,0,0,0,0,0,0,0,0,0,0,0,0,0,0,0,0,0,0,0,0,0,0,0,0,0,0,0,0,0,0,0,0,0,0,0,0,3.171,3.1711,0,3.179,3.1791,3.1792,3.1823,3.1823,3.1823,3.1823,3.1907,3.191,3.1912,0,0,0,0,0,0,0,0,0,0,0,0,0,3.1587,3.1589,3.171,3.1711,3.1712,3.179,3.1791,3.1792,3.1823,3.1823,3.1823,3.1823,3.1906,3.1909,3.1912,0,0,0,0,0,0,0,0,0,0,0,0,0,3.1651,3.1589,3.1709,3.1737,3.174,3.179,3.1791,3.1792,3.1823,3.1823,3.1823,3.1822,3.1905,3.1909,3.1913,3.1942,0,0,3.1924,3.1925,0,0,0,0,0,0,0,0,3.1647,3.1655,3.1732,3.1735,3.1739,3.1796,3.1779,3.1843,3.1824,3.1792,3.1823,3.1822,3.1871,3.1877,3.1893,3.1946,3.195,3.1924,3.1926,3.1928,3.1929,0,0,0,0,0,0,0,3.1643,3.1652,3.1742,3.1733,3.1737,3.1746,3.1755,3.1791,3.1832,3.1795,3.1797,3.1806,3.1873,3.1889,3.1895,3.1951,3.1924,3.1927,3.193,3.1931,3.2035,3.2035,0,0,0,0,0,0,3.1633,3.1648,3.1739,3.1744,3.1691,3.1748,3.1758,3.1778,3.1832,3.184,3.1806,3.1807,3.1883,3.1891,3.1898,3.1938,3.1928,3.1931,3.1934,3.2034,3.2035,3.2035,0,0,0,0,0,0,3.1631,3.1641,3.1736,3.1697,3.171,3.1751,3.1773,3.178,3.1797,3.1841,3.1848,3.1816,3.1883,3.1893,3.1931,3.1941,3.1933,3.1936,3.2033,3.2034,3.2035,3.2015,0,0,0,0,0,0,3.1627,3.164,3.165,3.1697,3.1711,3.1766,3.1774,3.1782,3.1803,3.1805,3.1852,3.1859,3.1884,3.1926,3.1935,3.1946,3.1939,3.2033,3.2034,3.2035,3.2015,3.2015,3.2016,0,0,0,0,0,3.1622,3.1642,3.1651,3.1662,3.1725,3.1766,3.1775,3.1802,3.1803,3.1815,3.1844,3.1858,3.1939,3.1929,3.194,3.1952,3.2032,3.2034,3.2035,3.2015,3.2015,3.2016,0,0,0,0,0,0,3.1595,3.1648,3.1659,3.1693,3.1725,3.1772,3.1787,3.1801,3.1834,3.1835,3.1868,3.1879,3.1914,3.1937,3.1926,3.1985,3.1987,3.199,3.1968,3.1969,3.1969,3.1962,3.1942,0,0,0,0,0,3.1593,3.1621,3.1667,3.1693,3.1708,3.1745,3.1764,3.1783,3.1817,3.1831,3.1862,3.1896,3.1929,3.195,3.1983,3.2019,3.2031,3.2033,3.2033,3.2033,3.2036,3.2059,3.206,3.2039,3.2039,3.2039,0,0,3.159,3.1622,3.1638,3.1688,3.1715,3.1745,3.1756,3.1786,3.1809,3.1836,3.1873,3.1898,3.1938,3.1976,3.1994,3.1996,3.2044,3.2035,3.2034,3.2037,3.206,3.2062,3.2064,3.204,3.204,3.204,0,0,3.1598,3.1625,3.165,3.1677,3.1718,3.1743,3.1749,3.1794,3.1811,3.185,3.1871,3.1899,3.1955,3.1984,3.2005,3.2027,3.2042,3.2037,3.2037,3.2059,3.2061,3.2063,3.2071,3.2074,3.204,3.204,3.204,0,3.1588,3.1632,3.1662,3.1691,3.1714,3.174,3.1767,3.1792,3.1841,3.1857,3.1859,3.1931,3.196,3.2005,3.2011,3.2027,3.2037,3.2032,3.2058,3.206,3.2062,3.2071,3.2074,3.2039,3.2039,3.2039,3.2039,0,3.1619,3.165,3.1666,3.1713,3.1738,3.1766,3.1801,3.1822,3.184,3.1865,3.1905,3.1941,3.1982,3.1995,3.2012,3.2044,3.2044,3.2051,3.2054,3.2063,3.2072,3.2075,3.2038,3.2038,3.2038,3.2038,0,0,3.161,3.1675,3.1681,3.1703,3.1751,3.1776,3.1807,3.1847,3.1866,3.19,3.1927,3.1975,3.1983,3.2008,3.2029,3.2048,3.2065,3.2054,3.2055,3.2055,3.2104,3.2098,3.2101,3.2075,3.2076,3.2077,3.2101,0,3.1625,3.168,3.1709,3.1752,3.1781,3.1808,3.1835,3.1868,3.1893,3.1923,3.1951,3.1985,3.1992,3.2008,3.2028,3.2058,3.2075,3.2057,3.2102,3.2103,3.2091,3.2106,3.2099,3.212,3.2104,3.2105,3.2105,0,3.1649,3.1683,3.1729,3.1776,3.179,3.1813,3.1854,3.1882,3.1921,3.1938,3.1967,3.1988,3.2023,3.2023,3.2073,3.206,3.2081,3.2099,3.21,3.2105,3.2105,3.2111,3.2127,3.213,3.2111,3.2111,3.211,0,3.1639,3.1697,3.1732,3.1751,3.1806,3.1822,3.1846,3.1885,3.1908,3.1944,3.196,3.1999,3.2021,3.2052,3.2084,3.2082,3.2132,3.2134,3.2148,3.2147,3.2157,3.2155,3.2176,3.217,3.217,3.217,3.217,0,3.1653,3.168,3.1729,3.175,3.1783,3.1816,3.1848,3.1874,3.1909,3.1937,3.1963,3.1989,3.203,3.2062,3.2088,3.2126,3.2135,3.2151,3.2158,3.2149,3.2147,3.2162,3.2162,3.2171,3.217,3.217,3.217,0,3.1646,3.168,3.172,3.177,3.1783,3.1805,3.1848,3.1871,3.1898,3.1934,3.1944,3.1987,3.2026,3.2062,3.2114,3.2131,3.217,3.2178,3.2157,3.216,3.2172,3.2171,3.2203,3.2209,3.2199,3.2199,3.2199,0,3.1652,3.1674,3.1726,3.1747,3.1771,3.1804,3.1828,3.1863,3.1887,3.1935,3.1953,3.1994,3.2029,3.2091,3.2127,3.2168,3.2177,3.2186,3.2184,3.2175,3.2178,3.2177,3.218,3.2186,3.2186,3.2185,3.2185,0,3.166,3.1676,3.171,3.175,3.1778,3.1811,3.1845,3.1861,3.1903,3.1929,3.197,3.1997,3.2051,3.2092,3.2137,3.2163,3.2182,3.2186,3.2192,3.2182,3.2169,3.2177,3.2156,3.2185,3.2185,3.2185,3.2185,3.2185,3.1661,3.1682,3.1722,3.1759,3.1789,3.1821,3.1845,3.1876,3.191,3.1956,3.1976,3.2017,3.2059,3.2121,3.2148,3.2182,3.2185,3.2193,3.2195,3.2196,3.2195,3.2164,3.2191,3.2191,3.2191,3.2191,3.2191,0,3.167,3.1698,3.1732,3.1779,3.1809,3.1824,3.1863,3.1887,3.1923,3.196,3.1994,3.2042,3.2083,3.2123,3.2167,3.2186,3.2196,3.2197,3.2195,3.2202,3.2189,3.218,3.2188,3.2188,3.2188,3.2188,3.2188,3.2188,3.1678,3.1715,3.1737,3.179,3.1818,3.1859,3.188,3.191,3.194,3.1992,3.2026,3.2052,3.2091,3.2138,3.2177,3.2188,3.2203,3.2201,3.2215,3.2202,3.2202,3.2202,3.2194,3.2204,3.2204,3.2225,3.2225,3.2225]},{"header":{"parameterUnit":"m.s-1","parameterCategory":1,"la1":30.2991,"la2":30.254,"lo1":-89.0895,"lo2":-89.0444,"dy":0.0017,"dx":0.0017,"nx":28,"ny":28,"refTime":"2026-01-02T03:00:00:Z","depth":0,"parameterNumber":3,"parameterNumberName":"V-component_of_WINDS"},"data":[0,0,0,0,0,0,0,0,0,0,0,0,0,0,0,0,0,0,0,0,0,0,0,0,0,0,0,0,0,0,0,0,0,0,0,0,0,0,0,0,0,0,0,0,0,0,0,0,0,0,0,0,0,0,0,0,0,0,1.5139,1.5138,0,1.5073,1.5072,1.5071,1.5028,1.5028,1.5028,1.5028,1.4958,1.4956,1.4954,0,0,0,0,0,0,0,0,0,0,0,0,0,1.5226,1.5225,1.5139,1.5138,1.5137,1.5073,1.5072,1.5071,1.5028,1.5028,1.5028,1.5027,1.4958,1.4956,1.4954,0,0,0,0,0,0,0,0,0,0,0,0,0,1.5177,1.5224,1.5139,1.5108,1.5105,1.5073,1.5072,1.5071,1.5028,1.5028,1.5028,1.5027,1.4959,1.4956,1.4954,1.4947,0,0,1.4947,1.4946,0,0,0,0,0,0,0,0,1.518,1.5174,1.5114,1.511,1.5107,1.5058,1.5077,1.5029,1.5029,1.5057,1.5028,1.5027,1.4991,1.4986,1.4975,1.4944,1.4941,1.4946,1.4945,1.4944,1.4943,0,0,0,0,0,0,0,1.5183,1.5177,1.5113,1.5113,1.5108,1.5097,1.509,1.5068,1.5027,1.5055,1.5052,1.5044,1.4989,1.4977,1.4973,1.494,1.4946,1.4944,1.4943,1.4942,1.49,1.4901,0,0,0,0,0,0,1.5192,1.518,1.5115,1.5111,1.5143,1.5096,1.5088,1.5074,1.5027,1.502,1.5045,1.5043,1.4981,1.4976,1.497,1.4959,1.4944,1.4942,1.494,1.49,1.49,1.4901,0,0,0,0,0,0,1.5194,1.5187,1.5118,1.5144,1.5135,1.5095,1.508,1.5073,1.5061,1.502,1.5012,1.504,1.4981,1.4973,1.4953,1.4956,1.4941,1.4938,1.49,1.49,1.4901,1.4938,0,0,0,0,0,0,1.5197,1.5188,1.5185,1.5145,1.5133,1.5103,1.508,1.5072,1.5057,1.5054,1.5013,1.5006,1.498,1.4957,1.4951,1.4953,1.4936,1.4899,1.49,1.49,1.4936,1.4939,1.4942,0,0,0,0,0,1.52,1.5197,1.5185,1.5178,1.5129,1.5103,1.5096,1.5067,1.5058,1.5054,1.5028,1.5008,1.4957,1.4956,1.4948,1.4949,1.4899,1.49,1.49,1.4934,1.4939,1.4942,0,0,0,0,0,0,1.5238,1.5192,1.5177,1.5162,1.5137,1.5096,1.5091,1.5072,1.5049,1.5046,1.501,1.5001,1.4985,1.4965,1.4964,1.494,1.4925,1.4925,1.4954,1.4957,1.4961,1.4966,1.4934,0,0,0,0,0,1.5245,1.5228,1.5188,1.5178,1.5166,1.5131,1.5118,1.5098,1.507,1.5059,1.5031,1.5004,1.4982,1.4969,1.4946,1.4933,1.4923,1.493,1.4933,1.4936,1.4935,1.4927,1.493,1.4903,1.4903,1.4903,0,0,1.5258,1.5231,1.5222,1.5185,1.5163,1.5146,1.5122,1.5105,1.5092,1.5056,1.5036,1.5015,1.4982,1.4966,1.4957,1.4948,1.4941,1.4937,1.4939,1.4937,1.4928,1.4931,1.4933,1.4904,1.4904,1.4904,0,0,1.5275,1.5252,1.5242,1.5221,1.5188,1.5165,1.5162,1.5124,1.5109,1.5088,1.5061,1.5045,1.5008,1.4986,1.497,1.4979,1.4959,1.4972,1.4989,1.4981,1.4983,1.4985,1.4988,1.499,1.4972,1.4972,1.4972,0,1.5295,1.5269,1.5238,1.5223,1.5207,1.5175,1.5164,1.5145,1.5107,1.5096,1.5088,1.5041,1.5017,1.4995,1.4997,1.4985,1.4981,1.4977,1.4985,1.4987,1.4988,1.4991,1.4992,1.4974,1.4974,1.4974,1.4974,0,1.5296,1.5278,1.5274,1.5239,1.5223,1.5209,1.5176,1.5164,1.5145,1.5122,1.5101,1.5071,1.5043,1.5036,1.5017,1.5011,1.5007,1.4992,1.4977,1.4993,1.4995,1.4996,1.4977,1.4976,1.4976,1.4975,0,0,1.5334,1.5283,1.5282,1.5266,1.5228,1.5213,1.5199,1.5172,1.5161,1.5136,1.5123,1.5092,1.5079,1.5061,1.5039,1.5032,1.5041,1.5018,1.5017,1.5024,1.5034,1.5046,1.5047,1.5028,1.5028,1.5028,1.5037,0,1.5345,1.5318,1.529,1.5273,1.5256,1.5225,1.5213,1.5188,1.5166,1.5149,1.5124,1.5104,1.5087,1.5076,1.5068,1.5042,1.5043,1.5041,1.5015,1.5015,1.5025,1.5048,1.506,1.507,1.5037,1.5037,1.5038,0,1.5353,1.5331,1.5312,1.5277,1.5268,1.5258,1.5231,1.5214,1.5185,1.517,1.5151,1.5128,1.511,1.5097,1.5072,1.5072,1.5059,1.5045,1.5045,1.5041,1.5027,1.5046,1.5072,1.5074,1.5038,1.5038,1.5038,0,1.5383,1.5348,1.5333,1.532,1.5278,1.5271,1.5253,1.5224,1.5209,1.5186,1.5176,1.515,1.5136,1.5116,1.5087,1.508,1.5065,1.5049,1.5052,1.5053,1.5051,1.5051,1.5076,1.5042,1.5042,1.5042,1.5042,0,1.5398,1.5388,1.5346,1.5336,1.5324,1.5292,1.528,1.5259,1.5234,1.522,1.5191,1.5178,1.514,1.5122,1.5099,1.5082,1.5076,1.5063,1.5057,1.5066,1.5067,1.5057,1.5056,1.5043,1.5043,1.5043,1.5042,0,1.543,1.5401,1.5382,1.5344,1.5335,1.5327,1.5295,1.5284,1.5261,1.5243,1.5237,1.5201,1.5179,1.5148,1.5115,1.5099,1.5086,1.5076,1.5097,1.5093,1.5098,1.5098,1.5117,1.5118,1.5084,1.5084,1.5085,0,1.5441,1.5433,1.5395,1.5384,1.5367,1.5349,1.5335,1.5303,1.5289,1.5256,1.5249,1.5225,1.5204,1.5169,1.514,1.5115,1.5104,1.5113,1.51,1.511,1.5105,1.5106,1.5105,1.5116,1.5117,1.5117,1.5117,0,1.5465,1.5451,1.5432,1.5408,1.5392,1.5371,1.5349,1.5341,1.5304,1.529,1.5267,1.5251,1.5219,1.5195,1.5166,1.5147,1.5126,1.5122,1.5121,1.513,1.5142,1.5136,1.5105,1.5121,1.5121,1.5121,1.512,1.512,1.5487,1.5478,1.5451,1.543,1.541,1.539,1.5379,1.5355,1.5336,1.5308,1.529,1.5269,1.524,1.52,1.5181,1.5164,1.5155,1.5154,1.5154,1.5154,1.5158,1.5145,1.5158,1.5158,1.5158,1.5158,1.5158,0,1.5509,1.549,1.5472,1.5442,1.5426,1.5409,1.5384,1.5371,1.5353,1.5329,1.5309,1.5283,1.526,1.5229,1.5204,1.5195,1.5185,1.519,1.519,1.5186,1.5166,1.517,1.5199,1.5199,1.5199,1.5199,1.5199,1.5199,1.5519,1.5504,1.5487,1.5462,1.5443,1.5422,1.5409,1.5391,1.5371,1.5344,1.5325,1.5306,1.5279,1.5251,1.5229,1.5221,1.5213,1.5221,1.5209,1.5191,1.5188,1.5184,1.5187,1.5219,1.5219,1.523,1.5231,1.5231]}]]